Location: Alphen
(52.1351°N, 4.6549°E)
Time: 01:48:15
(UTC+00:00)

Envisat - Pass Details

Date: 27 January 2021
Orbit: 764 x 766 km, 98.1° (Epoch: 26 February)

Event Time Altitude Azimuth Distance (km) Brightness Sun altitude
Rises 06:36:50 0° 9° (N) 3,247 6.1 -8.1°
Reaches altitude 10° 06:39:17 10° 1° (N) 2,316 5.3 -7.8°
Maximum altitude 06:43:55 36° 296° (WNW) 1,194 3.5 -7.1°
Drops below altitude 10° 06:48:31 10° 231° (SW) 2,301 5.2 -6.4°
Sets 06:50:58 0° 223° (SW) 3,222 6.0 -6.1°
